Location: Unspecified
(0.0000°N, 0.0000°E)
Time: 02:53:20
(UTC+02:00)

Cosmos 1812 Rocket - Visible Passes

Search period start: 26 June 2016 00:00
Search period end: 06 July 2016 00:00
Orbit: 607 x 632 km, 82.5° (Epoch: 25 June)

Date Brightness Start Highest point End Pass type
(mag) Time Alt. Az. Time Alt. Az. Time Alt. Az.
26 Jun 5.1 07:03:05 10° SSE 07:07:06 37° E 07:11:08 10° NNE visible
27 Jun 3.5 07:20:09 10° S 07:24:30 89° W 07:28:51 10° N visible
29 Jun 6.2 06:18:43 10° SE 06:21:42 18° E 06:24:41 10° NE visible
30 Jun 4.8 06:34:59 10° SSE 06:39:05 41° E 06:43:11 10° NNE visible
01 Jul 3.4 06:52:07 10° S 06:56:28 82° W 07:00:50 10° N visible
02 Jul 4.2 07:10:21 12° SSW 07:13:52 34° W 07:17:49 10° NNW visible
03 Jul 6.0 05:51:27 14° SE 05:53:41 20° E 05:56:52 10° NE visible
03 Jul 5.2 07:28:45 10° WSW 07:31:16 15° W 07:33:47 10° NW visible
04 Jul 4.5 06:09:43 34° SE 06:11:04 45° E 06:15:15 10° NNE visible
05 Jul 3.4 06:27:57 65° SW 06:28:28 75° W 06:32:50 10° N visible
